This is the latest recevied weather packets stored in our database for station/object VE9LJW. If no packets are shown the sender has not sent any weather packets the latest 10 day(s).
| Time | Temp. | Humidity | Pressure | Rain* | Wind** | Luminosity | Snow |
|---|---|---|---|---|---|---|---|
| 1777965127 | 10° C | 95% | 1005.8 hPa | 0 mm | - | 0 W/m² | - |
| 1777964825 | 10.56° C | 95% | 1005.6 hPa | 0 mm | - | 0 W/m² | - |
| 1777964520 | 10.56° C | 94% | 1005.6 hPa | 0 mm | - | 0 W/m² | - |
| 1777964216 | 11.11° C | 93% | 1005.7 hPa | 0 mm | - | 0 W/m² | - |
| 1777963914 | 11.11° C | 93% | 1005.6 hPa | 0 mm | - | 0 W/m² | - |
| 1777963610 | 11.67° C | 92% | 1005.6 hPa | 0 mm | - | 0 W/m² | - |
| 1777963309 | 11.67° C | 91% | 1005.6 hPa | 0 mm | - | 0 W/m² | - |
| 1777963005 | 11.67° C | 91% | 1005.8 hPa | 0 mm | - | 0 W/m² | - |
| 1777962702 | 12.22° C | 90% | 1005.6 hPa | 0 mm | - | 0 W/m² | - |
| 1777962398 | 12.22° C | 90% | 1005.6 hPa | 0 mm | - | 0 W/m² | - |
| 1777962096 | 12.22° C | 90% | 1005.5 hPa | 0 mm | - | 0 W/m² | - |
| 1777961792 | 12.22° C | 90% | 1005.5 hPa | 0 mm | - | 0 W/m² | - |
| 1777961491 | 12.22° C | 90% | 1005.6 hPa | 0 mm | - | 0 W/m² | - |
| 1777961188 | 12.22° C | 90% | 1005.4 hPa | 0 mm | - | 0 W/m² | - |
| 1777960885 | 12.22° C | 90% | 1005.6 hPa | 0 mm | - | 0 W/m² | - |
| 1777960580 | 12.22° C | 90% | 1005.5 hPa | 0 mm | - | 0 W/m² | - |
| 1777960277 | 12.22° C | 90% | 1005.7 hPa | 0 mm | - | 0 W/m² | - |
| 1777959974 | 12.22° C | 90% | 1005.6 hPa | 0 mm | - | 0 W/m² | - |
| 1777959672 | 12.78° C | 89% | 1005.6 hPa | 0 mm | - | 0 W/m² | - |
| 1777959369 | 12.78° C | 89% | 1005.9 hPa | 0 mm | - | 0 W/m² | - |
| 1777959065 | 12.22° C | 90% | 1005.6 hPa | 0 mm | - | 0 W/m² | - |
| 1777958763 | 12.22° C | 90% | 1005.9 hPa | 0 mm | - | 0 W/m² | - |
| 1777958460 | 12.22° C | 90% | 1005.7 hPa | 0 mm | - | 0 W/m² | - |
| 1777958157 | 12.22° C | 90% | 1005.9 hPa | 0 mm | - | 0 W/m² | - |
| 1777957855 | 12.22° C | 90% | 1005.7 hPa | 0 mm | - | 0 W/m² | - |
* Rain latest hour (hover to see other rain measurements)
** Current wind speed in m/s (hover to see current wind gust speed)